Regional Weather Roundup
Issued by NWS Bismarck, ND

Home | Current Version | Previous Version | Text Only | Print | Product List | Glossary On
Versions: 1 2 3 4 5 6 7 8 9 10 11 12 13 14 15 16 17 18 19 20 21 22 23 24 25 26 27 28 29 30 31 32 33 34 35 36 37 38 39 40 41 42 43 44 45 46 47 48 49 50
000
ASUS43 KBIS 181802
RWRBIS

NWR BROADCAST TEXT
NATIONAL WEATHER SERVICE BISMARCK ND
1200 PM CST WED JAN 18 2017

NOTE: "FAIR" INDICATES FEW OR NO CLOUDS BELOW 12,000 FEET WITH NO
SIGNIFICANT WEATHER AND/OR OBSTRUCTIONS TO VISIBILITY.


CITY           SKY/WX    TMP DP  RH WIND       PRES   REMARKS
WILLISTON      FAIR      37  24  59 SW6       29.62F
MINOT          FAIR      41  28  60 SW17      29.62F
MINOT AFB      NOT AVBL
BISMARCK       FAIR      27  20  75 E3        29.73F
DICKINSON      FAIR      38  26  62 SW10      29.66F
GARRISON         N/A     34  25  69 CALM      29.66F
HETTINGER ARPT FAIR      37  25  61 SW8       29.73F
JAMESTOWN      FAIR      35  27  72 S7        29.70F
CARRINGTON     FAIR      36  28  75 SW9       29.71F
HAZEN            N/A    N/A N/A N/A W7        29.70F
MANDAN         FAIR      32  25  74 S7        29.71F
STANLEY        FAIR      37  28  70 S6        29.64F
$$

CITY           SKY/WX    TMP DP  RH WIND       PRES   REMARKS
GRAND FORKS    FAIR      28  21  75 S9        29.70F WCI  19
GRAND FORKS AF SUNNY     37  26  64 SW10      29.69F
DEVILS LAKE    FAIR      35  27  72 SW10      29.68F
FARGO          FAIR      30  23  75 S7        29.75F
GRAFTON        FAIR      28  25  86 S7        29.70F
GWINNER        FAIR      32  27  80 SW17      29.76S
$$

CITY           SKY/WX    TMP DP  RH WIND       PRES   REMARKS
ABERDEEN       FAIR      27  17  66 S5        29.80F
MOBRIDGE       FAIR      24  16  71 E5        29.74F WCI  18
BUFFALO          N/A     30  20  66 W6        29.66F
RAPID CITY     FAIR      29  21  72 S3        29.73F
GLASGOW        FAIR      35  27  72 SE12      29.55S
SIDNEY         FAIR      32  23  69 S18       29.62F
WOLF POINT     FAIR      32  22  66 NE5       29.58F
GLENDIVE       FAIR      31  23  72 S16       29.66F WCI  20
MILES CITY     FAIR      27  17  66 S14       29.68F WCI  16
BAKER          FAIR      32  22  66 E7        29.70F
$$

CITY           SKY/WX    TMP DP  RH WIND       PRES   REMARKS
BILLINGS       FAIR      41  20  43 SW16      29.68F
GREAT FALLS    FAIR      44  25  47 S17       29.59R
$$





USA.gov is the U.S. government's official web portal to all federal, state and local government web resources and services.